Jackson, Tennessee, United States (38301)
Lat: 35.61N, Lon: 88.81W
Wx Zone: TNZ052
Local Info
Past Weather Observations for Saturday, May 21, 2016

NOTE: This archive is for the closest National Weather Service station to Jackson. Information may differ from the station used for current weather conditions.

Click here for Long-term Archive

Time Weather Temperature Dewpoint Humidity Pressure Winds Precip Visibility
23:53
Clear
55°F / 13°C 54°F / 12°C 94% 30.09 in
(1019 mb)
SW 3.5 mph
(SW 6 kph)
- 10SM
22:53
Clear
55°F / 13°C 54°F / 12°C 94% 30.09 in
(1019 mb)
Calm - 10SM
21:53
Clear
57°F / 14°C 54°F / 12°C 88% 30.09 in
(1019 mb)
Calm - 10SM
20:53
Clear
59°F / 15°C 55°F / 13°C 88% 30.09 in
(1019 mb)
Calm - 10SM
19:53
Clear
63°F / 17°C 54°F / 12°C 73% 30.09 in
(1019 mb)
Calm - 10SM
18:53
Partly Cloudy
66°F / 19°C 54°F / 12°C 64% 30.09 in
(1019 mb)
NE 6.9 mph
(NE 11 kph)
- 10SM
17:53
Overcast
72°F / 22°C 54°F / 12°C 53% 30.09 in
(1019 mb)
NNE 15 mph
(NNE 24 kph)
- 10SM
16:53
Partly Cloudy
73°F / 23°C 54°F / 12°C 50% 30.09 in
(1019 mb)
N 12.7 mph
(N 20 kph)
- 10SM
15:53
Partly Cloudy
73°F / 23°C 54°F / 12°C 50% 30.09 in
(1019 mb)
NNW 16.1 mph
(NNW 26 kph)
- 10SM
14:53
Partly Cloudy
75°F / 24°C 54°F / 12°C 47% 30.09 in
(1019 mb)
NNW 15 mph
(NNW 24 kph)
- 10SM
13:53
Clear
75°F / 24°C 52°F / 11°C 44% 30.09 in
(1019 mb)
NW 16.1 mph
(NW 26 kph)
- 10SM
12:53
Partly Cloudy
73°F / 23°C 54°F / 12°C 50% 30.09 in
(1019 mb)
NW 12.7 mph
(NW 20 kph)
- 10SM
11:53
Partly Cloudy
73°F / 23°C 54°F / 12°C 50% 30.09 in
(1019 mb)
NW 11.5 mph
(NW 19 kph)
- 10SM
10:53
Partly Cloudy
72°F / 22°C 54°F / 12°C 53% 30.12 in
(1020 mb)
WNW 10.4 mph
(WNW 17 kph)
- 10SM
09:53
Partly Cloudy
72°F / 22°C 57°F / 14°C 61% 30.12 in
(1020 mb)
N 10.4 mph
(N 17 kph)
- 10SM
08:53
Partly Cloudy
68°F / 20°C 59°F / 15°C 73% 30.12 in
(1020 mb)
N 11.5 mph
(N 19 kph)
- 10SM
08:42
Partly Cloudy
68°F / 20°C 59°F / 15°C 73% 30.12 in
(1020 mb)
N 11.5 mph
(N 19 kph)
- 10SM
08:27
Mostly Cloudy
68°F / 20°C 61°F / 16°C 78% 30.12 in
(1020 mb)
N 11.5 mph
(N 19 kph)
- 10SM
07:53
Clear
68°F / 20°C 61°F / 16°C 78% 30.09 in
(1019 mb)
NNW 10.4 mph
(NNW 17 kph)
- 10SM
06:53
Clear
64°F / 18°C 59°F / 15°C 83% 30.09 in
(1019 mb)
N 6.9 mph
(N 11 kph)
- 10SM
05:53
Clear
Fog And Mist
61°F / 16°C 59°F / 15°C 94% 30.06 in
(1018 mb)
WNW 4.6 mph
(WNW 7 kph)
- 5SM
05:11
Clear
Fog And Mist
57°F / 14°C 55°F / 13°C 94% 30.06 in
(1018 mb)
W 3.5 mph
(W 6 kph)
- 4SM
05:02
Clear
Fog And Mist
57°F / 14°C 55°F / 13°C 94% 30.06 in
(1018 mb)
SSW 3.5 mph
(SSW 6 kph)
- 2 1/2SM
04:53
Clear
Fog And Mist
55°F / 13°C 55°F / 13°C 100% 30.06 in
(1018 mb)
SSW 3.5 mph
(SSW 6 kph)
- 1 3/4SM
04:34
Partly Cloudy
Fog And Mist
55°F / 13°C 54°F / 12°C 94% 30.04 in
(1017 mb)
SSW 3.5 mph
(SSW 6 kph)
- 4SM
04:23
Partly Cloudy
Fog And Mist
55°F / 13°C 54°F / 12°C 94% 30.04 in
(1017 mb)
Calm - 2SM
04:12
Partly Cloudy
Fog And Mist
55°F / 13°C 54°F / 12°C 94% 30.04 in
(1017 mb)
Calm - 3SM
04:09
Clear
Fog And Mist
55°F / 13°C 54°F / 12°C 94% 30.04 in
(1017 mb)
Calm - 2 1/2SM
03:53
Partly Cloudy
Fog And Mist
55°F / 13°C 54°F / 12°C 94% 30.04 in
(1017 mb)
Calm - 1 1/4SM
03:51
Partly Cloudy
Fog And Mist
55°F / 13°C 55°F / 13°C 100% 30.04 in
(1017 mb)
Calm - 1 3/4SM
03:44
Partly Cloudy
Fog And Mist
55°F / 13°C 55°F / 13°C 100% 30.04 in
(1017 mb)
Calm - 4SM
03:38
Partly Cloudy
Fog And Mist
55°F / 13°C 54°F / 12°C 94% 30.04 in
(1017 mb)
Calm - 1 1/4SM
03:28
Obscured
Fog And Mist
57°F / 14°C 55°F / 13°C 94% 30.04 in
(1017 mb)
Calm - 3/4SM
03:23
Partly Cloudy
Fog And Mist
55°F / 13°C 55°F / 13°C 100% 30.04 in
(1017 mb)
Calm - 1 3/4SM
03:18
Partly Cloudy
Fog And Mist
55°F / 13°C 55°F / 13°C 100% 30.04 in
(1017 mb)
Calm - 3SM
03:05
Partly Cloudy
Fog And Mist
55°F / 13°C 55°F / 13°C 100% 30.04 in
(1017 mb)
Calm - 1 3/4SM
02:53
Clear
Fog And Mist
55°F / 13°C 55°F / 13°C 100% 30.04 in
(1017 mb)
Calm - 5SM
02:30
Mostly Cloudy
Fog And Mist
57°F / 14°C 57°F / 14°C 100% 30.04 in
(1017 mb)
Calm - 3SM
02:16
Overcast
Fog And Mist
57°F / 14°C 57°F / 14°C 100% 30.04 in
(1017 mb)
Calm - 2SM
01:53
Mostly Cloudy
Fog And Mist
57°F / 14°C 57°F / 14°C 100% 30.04 in
(1017 mb)
Calm - 6SM
01:23
Partly Cloudy
Fog And Mist
57°F / 14°C 55°F / 13°C 94% 30.04 in
(1017 mb)
Calm - 3SM
01:21
Partly Cloudy
Fog And Mist
57°F / 14°C 55°F / 13°C 94% 30.04 in
(1017 mb)
W 3.5 mph
(W 6 kph)
- 1 1/4SM
00:59
Obscured
Fog
57°F / 14°C 57°F / 14°C 100% 30.04 in
(1017 mb)
Calm - 1/2SM
00:53
Clear
Fog
59°F / 15°C 57°F / 14°C 94% 30.04 in
(1017 mb)
Calm - 1/2SM
00:48
Clear
Fog
59°F / 15°C 57°F / 14°C 94% 30.04 in
(1017 mb)
Calm - 1/2SM
00:38
Obscured
Fog
57°F / 14°C 57°F / 14°C 100% 30.04 in
(1017 mb)
Calm - 1/2SM
00:30
Clear
Fog And Mist
59°F / 15°C 57°F / 14°C 94% 30.04 in
(1017 mb)
Calm - 3/4SM
00:18
Obscured
Fog And Mist
59°F / 15°C 57°F / 14°C 94% 30.04 in
(1017 mb)
Calm - 3/4SM
00:14
Clear
Fog And Mist
59°F / 15°C 57°F / 14°C 94% 30.04 in
(1017 mb)
Calm - 1 3/4SM
00:10
Clear
Fog And Mist
59°F / 15°C 57°F / 14°C 94% 30.04 in
(1017 mb)
Calm - 5SM
00:03
Partly Cloudy
Fog And Mist
57°F / 14°C 57°F / 14°C 100% 30.04 in
(1017 mb)
Calm - 2 1/2SM
Time Weather Temperature Dewpoint Humidity Pressure Winds Precip Visibility


Weather for websites

WeatherForYou.com, LLC is not responsible for any damages or problems caused by this service. Current weather conditions are obtained from the closest station including government and personal stations which may have varying degrees of accuracy. Weather forecasts are derived from the NOAA NDFD. Like all things, this site belongs to Jesus Christ... He just trusts us to maintain it. If you have any questions or comments email webmaster@weatherforyou.com

Copyright © 2016, WeatherForYou.com LLC. All rights reserved.